Time,TemperatureF,DewpointF,PressureIn,WindDirection,WindDirectionDegrees,WindSpeedMPH,WindSpeedGustMPH,Humidity,HourlyPrecipIn,Conditions,Clouds,dailyrainin,SoftwareType,DateUTC
2013-02-05 00:00:00,48.9,46.7,29.97,WNW,300,0.0,0.0,92,0.00,,,0.00,WeatherCatV1.02B3,2013-02-05 06:00:00,
2013-02-05 00:05:00,48.9,46.7,29.97,WNW,300,0.0,0.0,92,0.00,,,0.00,WeatherCatV1.02B3,2013-02-05 06:05:00,
2013-02-05 00:10:00,48.9,46.7,29.97,WNW,300,0.0,0.0,92,0.00,,,0.00,WeatherCatV1.02B3,2013-02-05 06:10:00,
2013-02-05 00:15:00,48.8,46.6,29.97,WNW,300,0.0,0.0,92,0.00,,,0.00,WeatherCatV1.02B3,2013-02-05 06:15:00,
2013-02-05 00:20:00,48.8,46.6,29.97,WNW,300,0.0,0.0,92,0.00,,,0.00,WeatherCatV1.02B3,2013-02-05 06:20:00,
2013-02-05 00:25:00,48.9,46.7,29.97,WNW,300,0.0,0.0,92,0.00,,,0.00,WeatherCatV1.02B3,2013-02-05 06:25:00,
2013-02-05 00:30:00,48.9,46.7,29.97,WNW,300,0.0,0.0,92,0.00,,,0.00,WeatherCatV1.02B3,2013-02-05 06:30:00,
2013-02-05 00:35:00,49.0,46.8,29.97,WNW,300,0.0,0.0,92,0.00,,,0.00,WeatherCatV1.02B3,2013-02-05 06:35:00,
2013-02-05 00:40:00,49.0,46.8,29.97,WNW,300,0.0,0.0,92,0.00,,,0.00,WeatherCatV1.02B3,2013-02-05 06:40:00,
2013-02-05 00:45:00,49.0,46.8,29.97,WNW,300,0.0,0.0,92,0.00,,,0.00,WeatherCatV1.02B3,2013-02-05 06:45:00,
2013-02-05 00:50:00,48.9,46.7,29.97,WNW,300,0.0,0.0,92,0.00,,,0.00,WeatherCatV1.02B3,2013-02-05 06:50:00,
2013-02-05 00:55:00,48.9,46.7,29.97,WNW,300,0.0,0.0,92,0.00,,,0.00,WeatherCatV1.02B3,2013-02-05 06:55:00,
2013-02-05 01:00:00,48.9,46.7,29.97,WNW,300,0.0,0.0,92,0.00,,,0.00,WeatherCatV1.02B3,2013-02-05 07:00:00,
2013-02-05 01:05:00,48.9,46.7,29.97,WNW,300,0.0,0.0,92,0.00,,,0.00,WeatherCatV1.02B3,2013-02-05 07:05:00,
2013-02-05 01:10:00,48.9,46.7,29.97,WNW,300,0.0,0.0,92,0.00,,,0.00,WeatherCatV1.02B3,2013-02-05 07:10:00,
2013-02-05 01:15:00,48.9,46.7,29.97,WNW,300,0.0,0.0,92,0.00,,,0.00,WeatherCatV1.02B3,2013-02-05 07:15:00,
2013-02-05 01:20:00,49.0,46.8,29.97,WNW,300,0.0,0.0,92,0.00,,,0.00,WeatherCatV1.02B3,2013-02-05 07:20:00,
2013-02-05 01:25:00,49.0,46.8,29.97,WNW,300,0.0,0.0,92,0.00,,,0.00,WeatherCatV1.02B3,2013-02-05 07:25:00,
2013-02-05 01:30:00,49.0,46.8,29.97,WNW,300,0.0,0.0,92,0.00,,,0.00,WeatherCatV1.02B3,2013-02-05 07:30:00,
2013-02-05 01:35:00,49.0,46.8,29.97,WNW,300,0.0,0.0,92,0.00,,,0.00,WeatherCatV1.02B3,2013-02-05 07:35:00,
2013-02-05 01:40:00,49.0,46.8,29.97,WNW,300,0.0,0.0,92,0.00,,,0.00,WeatherCatV1.02B3,2013-02-05 07:40:00,
2013-02-05 01:45:00,49.0,46.8,29.97,WNW,300,0.0,0.0,92,0.00,,,0.00,WeatherCatV1.02B3,2013-02-05 07:45:00,
2013-02-05 01:50:00,49.0,46.8,29.97,WNW,300,0.0,0.0,92,0.00,,,0.00,WeatherCatV1.02B3,2013-02-05 07:50:00,
2013-02-05 01:55:00,49.0,46.8,29.97,WNW,300,0.0,0.0,92,0.00,,,0.00,WeatherCatV1.02B3,2013-02-05 07:55:00,
2013-02-05 02:00:00,49.0,47.1,29.97,WNW,300,0.0,0.0,93,0.00,,,0.00,WeatherCatV1.02B3,2013-02-05 08:00:00,
2013-02-05 02:05:00,49.0,47.1,29.97,WNW,300,0.0,0.0,93,0.00,,,0.00,WeatherCatV1.02B3,2013-02-05 08:05:00,
2013-02-05 02:10:00,49.0,46.8,29.97,WNW,300,0.0,0.0,92,0.00,,,0.00,WeatherCatV1.02B3,2013-02-05 08:10:00,
2013-02-05 02:15:00,49.0,46.8,29.96,WNW,300,0.0,0.0,92,0.00,,,0.00,WeatherCatV1.02B3,2013-02-05 08:15:00,
2013-02-05 02:20:00,49.0,47.1,29.96,WNW,300,0.0,0.0,93,0.00,,,0.00,WeatherCatV1.02B3,2013-02-05 08:20:00,
2013-02-05 02:25:00,49.0,47.1,29.96,WNW,300,0.0,0.0,93,0.00,,,0.00,WeatherCatV1.02B3,2013-02-05 08:25:00,
2013-02-05 02:30:00,49.0,47.1,29.96,WNW,300,0.0,0.0,93,0.00,,,0.00,WeatherCatV1.02B3,2013-02-05 08:30:00,
2013-02-05 02:35:00,49.0,47.1,29.95,WNW,300,0.0,0.0,93,0.00,,,0.00,WeatherCatV1.02B3,2013-02-05 08:35:00,
2013-02-05 02:40:00,49.0,46.8,29.95,WNW,300,0.0,0.0,92,0.00,,,0.00,WeatherCatV1.02B3,2013-02-05 08:40:00,
2013-02-05 02:45:00,49.0,47.1,29.95,WNW,300,0.0,0.0,93,0.00,,,0.00,WeatherCatV1.02B3,2013-02-05 08:45:00,
2013-02-05 02:50:00,49.0,47.1,29.94,WNW,300,0.0,1.0,93,0.00,,,0.00,WeatherCatV1.02B3,2013-02-05 08:50:00,
2013-02-05 02:55:00,49.0,47.1,29.94,WNW,300,0.0,0.0,93,0.00,,,0.00,WeatherCatV1.02B3,2013-02-05 08:55:00,
2013-02-05 03:00:00,49.0,47.1,29.94,WNW,300,0.0,0.0,93,0.00,,,0.00,WeatherCatV1.02B3,2013-02-05 09:00:00,
2013-02-05 03:05:00,48.9,47.0,29.94,WNW,300,0.0,0.0,93,0.00,,,0.00,WeatherCatV1.02B3,2013-02-05 09:05:00,
2013-02-05 03:10:00,48.9,47.0,29.94,WNW,300,0.0,1.0,93,0.00,,,0.00,WeatherCatV1.02B3,2013-02-05 09:10:00,
2013-02-05 03:15:00,48.8,46.9,29.95,WNW,300,0.0,0.0,93,0.00,,,0.00,WeatherCatV1.02B3,2013-02-05 09:15:00,
2013-02-05 03:20:00,48.8,46.9,29.95,WNW,300,0.0,0.0,93,0.00,,,0.00,WeatherCatV1.02B3,2013-02-05 09:20:00,
2013-02-05 03:25:00,48.7,46.8,29.95,WNW,300,0.0,0.0,93,0.00,,,0.00,WeatherCatV1.02B3,2013-02-05 09:25:00,
2013-02-05 03:30:00,48.7,46.8,29.95,WNW,300,4.0,4.0,93,0.00,,,0.00,WeatherCatV1.02B3,2013-02-05 09:30:00,
2013-02-05 03:35:00,48.6,46.7,29.95,WNW,300,0.0,2.0,93,0.00,,,0.00,WeatherCatV1.02B3,2013-02-05 09:35:00,
2013-02-05 03:40:00,48.6,46.7,29.95,WNW,300,0.0,1.0,93,0.00,,,0.00,WeatherCatV1.02B3,2013-02-05 09:40:00,
2013-02-05 03:42:00,48.5,46.6,29.95,WNW,300,0.0,0.0,93,0.00,,,0.00,WeatherCatV1.02B3,2013-02-05 09:42:00,
2013-02-05 03:47:00,48.5,46.9,29.95,WNW,300,0.0,0.0,94,0.00,,,0.00,WeatherCatV1.02B3,2013-02-05 09:47:00,
2013-02-05 03:52:00,48.5,46.6,29.95,WNW,300,0.0,0.0,93,0.00,,,0.00,WeatherCatV1.02B3,2013-02-05 09:52:00,
2013-02-05 03:57:00,48.5,46.6,29.96,WNW,300,0.0,0.0,93,0.00,,,0.00,WeatherCatV1.02B3,2013-02-05 09:57:00,
2013-02-05 04:02:00,48.5,46.6,29.96,WNW,300,0.0,0.0,93,0.00,,,0.00,WeatherCatV1.02B3,2013-02-05 10:02:00,
2013-02-05 04:07:00,48.6,46.7,29.96,WNW,300,0.0,0.0,93,0.00,,,0.00,WeatherCatV1.02B3,2013-02-05 10:07:00,
2013-02-05 04:12:00,48.6,46.7,29.96,WNW,300,0.0,0.0,93,0.00,,,0.00,WeatherCatV1.02B3,2013-02-05 10:12:00,
2013-02-05 04:17:00,48.7,46.8,29.96,WNW,300,0.0,0.0,93,0.00,,,0.00,WeatherCatV1.02B3,2013-02-05 10:17:00,
2013-02-05 04:22:00,48.7,46.8,29.96,WNW,300,0.0,0.0,93,0.00,,,0.00,WeatherCatV1.02B3,2013-02-05 10:22:00,
2013-02-05 04:27:00,48.7,46.8,29.96,WNW,300,0.0,0.0,93,0.00,,,0.00,WeatherCatV1.02B3,2013-02-05 10:27:00,
2013-02-05 04:32:00,48.7,46.8,29.96,WNW,300,0.0,0.0,93,0.00,,,0.00,WeatherCatV1.02B3,2013-02-05 10:32:00,
2013-02-05 04:37:00,48.8,46.9,29.96,WNW,300,0.0,0.0,93,0.00,,,0.00,WeatherCatV1.02B3,2013-02-05 10:37:00,
2013-02-05 04:42:00,48.8,46.9,29.96,WNW,300,0.0,0.0,93,0.00,,,0.00,WeatherCatV1.02B3,2013-02-05 10:42:00,
2013-02-05 04:47:00,48.8,46.9,29.96,WNW,300,0.0,0.0,93,0.00,,,0.00,WeatherCatV1.02B3,2013-02-05 10:47:00,
2013-02-05 04:52:00,48.8,46.9,29.96,WNW,300,0.0,0.0,93,0.00,,,0.00,WeatherCatV1.02B3,2013-02-05 10:52:00,
2013-02-05 04:57:00,48.8,46.9,29.96,WNW,300,0.0,0.0,93,0.00,,,0.00,WeatherCatV1.02B3,2013-02-05 10:57:00,
2013-02-05 05:02:00,48.8,46.9,29.96,WNW,300,0.0,0.0,93,0.00,,,0.00,WeatherCatV1.02B3,2013-02-05 11:02:00,
2013-02-05 05:07:00,48.7,46.8,29.96,WNW,300,0.0,0.0,93,0.00,,,0.00,WeatherCatV1.02B3,2013-02-05 11:07:00,
2013-02-05 05:12:00,48.7,46.8,29.96,WNW,300,0.0,0.0,93,0.00,,,0.00,WeatherCatV1.02B3,2013-02-05 11:12:00,
2013-02-05 05:17:00,48.7,46.8,29.97,WNW,300,0.0,0.0,93,0.00,,,0.00,WeatherCatV1.02B3,2013-02-05 11:17:00,
2013-02-05 05:22:00,48.6,46.7,29.97,WNW,300,0.0,0.0,93,0.00,,,0.00,WeatherCatV1.02B3,2013-02-05 11:22:00,
2013-02-05 05:27:00,48.6,46.7,29.97,WNW,300,0.0,0.0,93,0.00,,,0.00,WeatherCatV1.02B3,2013-02-05 11:27:00,
2013-02-05 05:32:00,48.7,47.0,29.97,WNW,300,0.0,0.0,94,0.00,,,0.00,WeatherCatV1.02B3,2013-02-05 11:32:00,
2013-02-05 05:37:00,48.7,47.0,29.97,WNW,300,1.0,2.0,94,0.00,,,0.00,WeatherCatV1.02B3,2013-02-05 11:37:00,
2013-02-05 05:42:00,48.7,47.0,29.97,WNW,300,0.0,1.0,94,0.00,,,0.00,WeatherCatV1.02B3,2013-02-05 11:42:00,
2013-02-05 05:47:00,48.7,46.8,29.98,WNW,300,0.0,0.0,93,0.00,,,0.00,WeatherCatV1.02B3,2013-02-05 11:47:00,
2013-02-05 05:52:00,48.8,46.9,29.98,WNW,300,0.0,0.0,93,0.00,,,0.00,WeatherCatV1.02B3,2013-02-05 11:52:00,
2013-02-05 05:57:00,48.8,46.9,29.98,WNW,300,0.0,0.0,93,0.00,,,0.00,WeatherCatV1.02B3,2013-02-05 11:57:00,
2013-02-05 06:02:00,48.8,46.9,29.98,WNW,300,0.0,0.0,93,0.00,,,0.00,WeatherCatV1.02B3,2013-02-05 12:02:00,
2013-02-05 06:07:00,48.8,46.9,29.99,WNW,300,0.0,0.0,93,0.00,,,0.00,WeatherCatV1.02B3,2013-02-05 12:07:00,
2013-02-05 06:12:00,48.8,46.9,29.99,WNW,300,0.0,0.0,93,0.00,,,0.00,WeatherCatV1.02B3,2013-02-05 12:12:00,
2013-02-05 06:17:00,48.8,46.9,29.99,WNW,300,0.0,0.0,93,0.00,,,0.00,WeatherCatV1.02B3,2013-02-05 12:17:00,
2013-02-05 06:22:00,48.8,46.9,29.99,WNW,300,0.0,0.0,93,0.00,,,0.00,WeatherCatV1.02B3,2013-02-05 12:22:00,
2013-02-05 06:27:00,48.8,46.9,29.99,WNW,300,0.0,0.0,93,0.00,,,0.00,WeatherCatV1.02B3,2013-02-05 12:27:00,
2013-02-05 06:32:00,48.9,47.2,29.99,WNW,300,0.0,0.0,94,0.00,,,0.00,WeatherCatV1.02B3,2013-02-05 12:32:00,
2013-02-05 06:37:00,48.9,47.2,29.99,WNW,300,0.0,0.0,94,0.00,,,0.00,WeatherCatV1.02B3,2013-02-05 12:37:00,
2013-02-05 06:42:00,48.8,47.2,30.00,WNW,300,1.0,3.0,94,0.00,,,0.00,WeatherCatV1.02B3,2013-02-05 12:42:00,
2013-02-05 06:47:00,48.8,47.2,30.00,WNW,300,0.0,1.0,94,0.00,,,0.00,WeatherCatV1.02B3,2013-02-05 12:47:00,
2013-02-05 06:52:00,48.8,47.2,30.00,WNW,300,0.0,0.0,94,0.00,,,0.00,WeatherCatV1.02B3,2013-02-05 12:52:00,
2013-02-05 06:57:00,48.7,47.0,30.00,WNW,300,0.0,0.0,94,0.00,,,0.00,WeatherCatV1.02B3,2013-02-05 12:57:00,
2013-02-05 07:02:00,48.7,47.0,30.00,WNW,300,0.0,0.0,94,0.00,,,0.00,WeatherCatV1.02B3,2013-02-05 13:02:00,
2013-02-05 07:07:00,48.7,47.0,30.01,WNW,300,0.0,0.0,94,0.00,,,0.00,WeatherCatV1.02B3,2013-02-05 13:07:00,
2013-02-05 07:12:00,48.7,47.0,30.01,WNW,300,0.0,0.0,94,0.00,,,0.00,WeatherCatV1.02B3,2013-02-05 13:12:00,
2013-02-05 07:17:00,48.7,47.0,30.01,WNW,300,0.0,0.0,94,0.00,,,0.00,WeatherCatV1.02B3,2013-02-05 13:17:00,
2013-02-05 07:22:00,48.7,47.0,30.01,WNW,300,0.0,0.0,94,0.00,,,0.00,WeatherCatV1.02B3,2013-02-05 13:22:00,
2013-02-05 07:27:00,48.7,47.3,30.02,WNW,300,0.0,0.0,95,0.00,,,0.00,WeatherCatV1.02B3,2013-02-05 13:27:00,
2013-02-05 07:32:00,48.7,47.0,30.02,WNW,300,0.0,0.0,94,0.00,,,0.00,WeatherCatV1.02B3,2013-02-05 13:32:00,
2013-02-05 07:37:00,48.7,47.0,30.02,WNW,300,0.0,0.0,94,0.00,,,0.00,WeatherCatV1.02B3,2013-02-05 13:37:00,
2013-02-05 07:42:00,48.8,47.2,30.02,WNW,300,0.0,0.0,94,0.00,,,0.00,WeatherCatV1.02B3,2013-02-05 13:42:00,
2013-02-05 07:47:00,48.9,47.2,30.02,WNW,300,0.0,0.0,94,0.00,,,0.00,WeatherCatV1.02B3,2013-02-05 13:47:00,
2013-02-05 07:52:00,48.9,47.2,30.02,WNW,300,0.0,0.0,94,0.00,,,0.00,WeatherCatV1.02B3,2013-02-05 13:52:00,
2013-02-05 07:57:00,49.0,47.3,30.02,WNW,300,0.0,0.0,94,0.00,,,0.00,WeatherCatV1.02B3,2013-02-05 13:57:00,
2013-02-05 08:02:00,49.2,47.5,30.02,WNW,300,0.0,0.0,94,0.00,,,0.00,WeatherCatV1.02B3,2013-02-05 14:02:00,
2013-02-05 08:07:00,49.3,47.6,30.02,WNW,300,0.0,0.0,94,0.00,,,0.00,WeatherCatV1.02B3,2013-02-05 14:07:00,
2013-02-05 08:12:00,49.5,47.8,30.02,WNW,300,0.0,0.0,94,0.00,,,0.00,WeatherCatV1.02B3,2013-02-05 14:12:00,
2013-02-05 08:17:00,49.6,47.9,30.02,WNW,300,0.0,0.0,94,0.00,,,0.00,WeatherCatV1.02B3,2013-02-05 14:17:00,
2013-02-05 08:22:00,49.8,47.9,30.02,WNW,300,0.0,0.0,93,0.00,,,0.00,WeatherCatV1.02B3,2013-02-05 14:22:00,
2013-02-05 08:27:00,50.0,48.1,30.03,WNW,300,0.0,0.0,93,0.00,,,0.00,WeatherCatV1.02B3,2013-02-05 14:27:00,
2013-02-05 08:32:00,50.1,48.2,30.02,WNW,300,0.0,0.0,93,0.00,,,0.00,WeatherCatV1.02B3,2013-02-05 14:32:00,
2013-02-05 08:37:00,50.3,48.1,30.02,WNW,300,0.0,0.0,92,0.00,,,0.00,WeatherCatV1.02B3,2013-02-05 14:37:00,
2013-02-05 08:42:00,50.6,48.7,30.03,WNW,300,2.0,2.0,93,0.00,,,0.00,WeatherCatV1.02B3,2013-02-05 14:42:00,
2013-02-05 08:47:00,50.8,48.6,30.03,WNW,300,2.0,4.0,92,0.00,,,0.00,WeatherCatV1.02B3,2013-02-05 14:47:00,
2013-02-05 08:52:00,51.1,48.9,30.03,WNW,300,3.0,3.0,92,0.00,,,0.00,WeatherCatV1.02B3,2013-02-05 14:52:00,
2013-02-05 08:57:00,51.2,49.0,30.03,WNW,300,1.0,3.0,92,0.00,,,0.00,WeatherCatV1.02B3,2013-02-05 14:57:00,
2013-02-05 09:02:00,51.5,49.3,30.03,North,5,4.0,5.0,92,0.00,,,0.00,WeatherCatV1.02B3,2013-02-05 15:02:00,
2013-02-05 09:07:00,51.7,49.2,30.04,North,11,4.0,5.0,91,0.00,,,0.00,WeatherCatV1.02B3,2013-02-05 15:07:00,
2013-02-05 09:12:00,51.9,49.4,30.03,North,11,0.0,3.0,91,0.00,,,0.00,WeatherCatV1.02B3,2013-02-05 15:12:00,
2013-02-05 09:17:00,52.0,49.5,30.03,North,11,2.0,3.0,91,0.00,,,0.00,WeatherCatV1.02B3,2013-02-05 15:17:00,
2013-02-05 09:22:00,52.2,49.7,30.04,North,11,0.0,3.0,91,0.00,,,0.00,WeatherCatV1.02B3,2013-02-05 15:22:00,
2013-02-05 09:27:00,52.3,49.8,30.04,North,11,0.0,1.0,91,0.00,,,0.00,WeatherCatV1.02B3,2013-02-05 15:27:00,
2013-02-05 09:32:00,52.3,49.8,30.04,North,11,1.0,2.0,91,0.00,,,0.00,WeatherCatV1.02B3,2013-02-05 15:32:00,
2013-02-05 09:37:00,52.4,49.8,30.04,North,11,0.0,0.0,91,0.00,,,0.00,WeatherCatV1.02B3,2013-02-05 15:37:00,
2013-02-05 09:42:00,52.5,49.9,30.05,North,11,3.0,3.0,91,0.00,,,0.00,WeatherCatV1.02B3,2013-02-05 15:42:00,
2013-02-05 09:47:00,52.5,49.9,30.05,North,11,0.0,1.0,91,0.00,,,0.00,WeatherCatV1.02B3,2013-02-05 15:47:00,
2013-02-05 09:52:00,52.6,50.0,30.05,North,11,3.0,3.0,91,0.00,,,0.00,WeatherCatV1.02B3,2013-02-05 15:52:00,
2013-02-05 09:57:00,52.6,49.8,30.05,NNW,330,0.0,1.0,90,0.00,,,0.00,WeatherCatV1.02B3,2013-02-05 15:57:00,
2013-02-05 10:02:00,52.7,49.8,30.05,NNW,330,1.0,1.0,90,0.00,,,0.00,WeatherCatV1.02B3,2013-02-05 16:02:00,
2013-02-05 10:07:00,52.7,49.8,30.05,NW,325,0.0,4.0,90,0.00,,,0.00,WeatherCatV1.02B3,2013-02-05 16:07:00,
2013-02-05 10:12:00,52.7,49.8,30.06,NW,325,1.0,2.0,90,0.00,,,0.00,WeatherCatV1.02B3,2013-02-05 16:12:00,
2013-02-05 10:17:00,52.7,49.8,30.06,NW,325,0.0,2.0,90,0.00,,,0.00,WeatherCatV1.02B3,2013-02-05 16:17:00,
2013-02-05 10:22:00,52.8,49.9,30.06,NW,325,3.0,3.0,90,0.00,,,0.00,WeatherCatV1.02B3,2013-02-05 16:22:00,
2013-02-05 10:27:00,52.9,50.0,30.06,NW,325,2.0,2.0,90,0.00,,,0.00,WeatherCatV1.02B3,2013-02-05 16:27:00,
2013-02-05 10:32:00,52.9,50.0,30.06,West,266,2.0,4.0,90,0.00,,,0.00,WeatherCatV1.02B3,2013-02-05 16:32:00,
2013-02-05 10:37:00,53.0,50.1,30.06,WSW,252,4.0,4.0,90,0.00,,,0.00,WeatherCatV1.02B3,2013-02-05 16:37:00,
2013-02-05 10:42:00,53.1,50.2,30.06,South,188,3.0,4.0,90,0.00,,,0.00,WeatherCatV1.02B3,2013-02-05 16:42:00,
2013-02-05 10:47:00,53.2,50.3,30.06,South,188,1.0,2.0,90,0.00,,,0.00,WeatherCatV1.02B3,2013-02-05 16:47:00,
2013-02-05 10:52:00,53.4,50.5,30.06,South,188,0.0,0.0,90,0.00,,,0.00,WeatherCatV1.02B3,2013-02-05 16:52:00,
2013-02-05 10:57:00,53.6,50.7,30.06,South,188,0.0,0.0,90,0.00,,,0.00,WeatherCatV1.02B3,2013-02-05 16:57:00,
2013-02-05 11:02:00,53.7,50.5,30.07,South,188,1.0,3.0,89,0.00,,,0.00,WeatherCatV1.02B3,2013-02-05 17:02:00,
2013-02-05 11:07:00,53.9,50.7,30.06,South,187,1.0,2.0,89,0.00,,,0.00,WeatherCatV1.02B3,2013-02-05 17:07:00,
2013-02-05 11:12:00,54.1,50.9,30.06,South,187,2.0,2.0,89,0.00,,,0.00,WeatherCatV1.02B3,2013-02-05 17:12:00,
2013-02-05 11:17:00,54.2,50.7,30.06,South,187,1.0,3.0,88,0.00,,,0.00,WeatherCatV1.02B3,2013-02-05 17:17:00,
2013-02-05 11:22:00,54.4,50.9,30.06,South,187,0.0,2.0,88,0.00,,,0.00,WeatherCatV1.02B3,2013-02-05 17:22:00,
2013-02-05 11:27:00,54.5,51.0,30.05,South,187,0.0,3.0,88,0.00,,,0.00,WeatherCatV1.02B3,2013-02-05 17:27:00,
2013-02-05 11:32:00,54.9,51.4,30.05,South,187,4.0,4.0,88,0.00,,,0.00,WeatherCatV1.02B3,2013-02-05 17:32:00,
2013-02-05 11:37:00,55.2,51.1,30.05,South,187,2.0,3.0,86,0.00,,,0.00,WeatherCatV1.02B3,2013-02-05 17:37:00,
2013-02-05 11:42:00,55.5,51.4,30.04,South,170,1.0,2.0,86,0.00,,,0.00,WeatherCatV1.02B3,2013-02-05 17:42:00,
2013-02-05 11:47:00,55.7,51.3,30.04,South,170,1.0,2.0,85,0.00,,,0.00,WeatherCatV1.02B3,2013-02-05 17:47:00,
2013-02-05 11:52:00,55.6,51.2,30.04,South,180,0.0,2.0,85,0.00,,,0.00,WeatherCatV1.02B3,2013-02-05 17:52:00,
2013-02-05 11:57:00,55.8,51.4,30.04,South,180,1.0,1.0,85,0.00,,,0.00,WeatherCatV1.02B3,2013-02-05 17:57:00,
2013-02-05 12:02:00,55.8,51.4,30.04,South,190,2.0,4.0,85,0.00,,,0.00,WeatherCatV1.02B3,2013-02-05 18:02:00,
2013-02-05 12:07:00,55.8,51.7,30.04,South,190,1.0,2.0,86,0.00,,,0.00,WeatherCatV1.02B3,2013-02-05 18:07:00,
2013-02-05 12:12:00,55.7,51.6,30.04,SSW,198,1.0,2.0,86,0.00,,,0.00,WeatherCatV1.02B3,2013-02-05 18:12:00,
2013-02-05 12:17:00,55.6,51.2,30.04,SSW,198,0.0,1.0,85,0.00,,,0.00,WeatherCatV1.02B3,2013-02-05 18:17:00,
2013-02-05 12:22:00,55.6,51.2,30.04,SSW,198,1.0,2.0,85,0.00,,,0.00,WeatherCatV1.02B3,2013-02-05 18:22:00,
2013-02-05 12:27:00,55.6,51.5,30.04,SSW,198,0.0,1.0,86,0.00,,,0.00,WeatherCatV1.02B3,2013-02-05 18:27:00,
2013-02-05 12:32:00,55.5,51.4,30.04,SSW,205,2.0,5.0,86,0.00,,,0.00,WeatherCatV1.02B3,2013-02-05 18:32:00,
2013-02-05 12:37:00,55.6,51.5,30.04,SSW,205,1.0,4.0,86,0.00,,,0.00,WeatherCatV1.02B3,2013-02-05 18:37:00,
2013-02-05 12:42:00,56.3,52.2,30.04,South,190,1.0,5.0,86,0.00,,,0.00,WeatherCatV1.02B3,2013-02-05 18:42:00,
2013-02-05 12:47:00,57.1,52.6,30.03,South,188,4.0,5.0,85,0.00,,,0.00,WeatherCatV1.02B3,2013-02-05 18:47:00,
2013-02-05 12:52:00,57.5,52.4,30.03,South,188,1.0,2.0,83,0.00,,,0.00,WeatherCatV1.02B3,2013-02-05 18:52:00,
2013-02-05 12:57:00,58.0,52.5,30.03,ESE,111,0.0,3.0,82,0.00,,,0.00,WeatherCatV1.02B3,2013-02-05 18:57:00,
2013-02-05 13:02:00,58.2,52.4,30.04,South,177,1.0,3.0,81,0.00,,,0.00,WeatherCatV1.02B3,2013-02-05 19:02:00,
2013-02-05 13:07:00,58.3,52.5,30.03,South,190,5.0,5.0,81,0.00,,,0.00,WeatherCatV1.02B3,2013-02-05 19:07:00,
2013-02-05 13:12:00,58.3,52.2,30.03,South,191,3.0,4.0,80,0.00,,,0.00,WeatherCatV1.02B3,2013-02-05 19:12:00,
2013-02-05 13:17:00,58.4,52.6,30.03,South,191,2.0,3.0,81,0.00,,,0.00,WeatherCatV1.02B3,2013-02-05 19:17:00,
2013-02-05 13:22:00,58.5,52.3,30.03,South,191,2.0,3.0,80,0.00,,,0.00,WeatherCatV1.02B3,2013-02-05 19:22:00,
2013-02-05 13:27:00,58.8,52.6,30.02,South,175,0.0,3.0,80,0.00,,,0.00,WeatherCatV1.02B3,2013-02-05 19:27:00,
2013-02-05 13:32:00,59.1,53.3,30.02,South,174,5.0,6.0,81,0.00,,,0.00,WeatherCatV1.02B3,2013-02-05 19:32:00,
2013-02-05 13:37:00,59.2,53.0,30.02,SSE,159,1.0,2.0,80,0.00,,,0.00,WeatherCatV1.02B3,2013-02-05 19:37:00,
2013-02-05 13:42:00,59.4,52.9,30.02,South,189,4.0,4.0,79,0.00,,,0.00,WeatherCatV1.02B3,2013-02-05 19:42:00,
2013-02-05 13:47:00,59.0,52.5,30.02,SSW,205,1.0,5.0,79,0.00,,,0.00,WeatherCatV1.02B3,2013-02-05 19:47:00,
2013-02-05 13:52:00,59.2,53.0,30.02,SSW,200,3.0,5.0,80,0.00,,,0.00,WeatherCatV1.02B3,2013-02-05 19:52:00,
2013-02-05 13:57:00,59.4,53.2,30.02,SSW,211,3.0,5.0,80,0.00,,,0.00,WeatherCatV1.02B3,2013-02-05 19:57:00,
2013-02-05 14:02:00,59.7,53.5,30.01,South,180,4.0,5.0,80,0.00,,,0.00,WeatherCatV1.02B3,2013-02-05 20:02:00,
2013-02-05 14:07:00,59.8,53.3,30.01,SSW,192,3.0,5.0,79,0.00,,,0.00,WeatherCatV1.02B3,2013-02-05 20:07:00,
2013-02-05 14:12:00,60.0,53.5,30.01,SSW,192,1.0,3.0,79,0.00,,,0.00,WeatherCatV1.02B3,2013-02-05 20:12:00,
2013-02-05 14:17:00,60.1,53.2,30.01,SSW,195,3.0,5.0,78,0.00,,,0.00,WeatherCatV1.02B3,2013-02-05 20:17:00,
2013-02-05 14:22:00,60.1,53.2,30.01,SSW,198,5.0,7.0,78,0.00,,,0.00,WeatherCatV1.02B3,2013-02-05 20:22:00,
2013-02-05 14:27:00,60.0,53.5,30.01,SW,226,3.0,5.0,79,0.00,,,0.00,WeatherCatV1.02B3,2013-02-05 20:27:00,
2013-02-05 14:32:00,59.9,53.4,30.01,SW,232,4.0,4.0,79,0.00,,,0.00,WeatherCatV1.02B3,2013-02-05 20:32:00,
2013-02-05 14:37:00,60.1,53.6,30.01,SW,216,4.0,7.0,79,0.00,,,0.00,WeatherCatV1.02B3,2013-02-05 20:37:00,
2013-02-05 14:42:00,60.2,53.7,30.01,SSW,202,3.0,5.0,79,0.00,,,0.00,WeatherCatV1.02B3,2013-02-05 20:42:00,
2013-02-05 14:47:00,60.4,53.5,30.01,SSW,196,6.0,6.0,78,0.00,,,0.00,WeatherCatV1.02B3,2013-02-05 20:47:00,
2013-02-05 14:52:00,60.4,53.2,30.01,SW,217,4.0,4.0,77,0.00,,,0.00,WeatherCatV1.02B3,2013-02-05 20:52:00,
2013-02-05 14:57:00,60.6,53.7,30.01,SW,223,1.0,2.0,78,0.00,,,0.00,WeatherCatV1.02B3,2013-02-05 20:57:00,
2013-02-05 15:02:00,60.9,54.0,30.01,SW,227,3.0,5.0,78,0.00,,,0.00,WeatherCatV1.02B3,2013-02-05 21:02:00,
2013-02-05 15:07:00,61.1,54.2,30.00,SW,223,2.0,3.0,78,0.00,,,0.00,WeatherCatV1.02B3,2013-02-05 21:07:00,
2013-02-05 15:12:00,61.4,54.1,30.00,SW,225,4.0,5.0,77,0.00,,,0.00,WeatherCatV1.02B3,2013-02-05 21:12:00,
2013-02-05 15:17:00,61.3,53.7,30.00,SW,232,2.0,5.0,76,0.00,,,0.00,WeatherCatV1.02B3,2013-02-05 21:17:00,
2013-02-05 15:22:00,61.3,53.3,30.00,WNW,292,3.0,4.0,75,0.00,,,0.00,WeatherCatV1.02B3,2013-02-05 21:22:00,
2013-02-05 15:27:00,61.2,52.8,30.00,West,269,3.0,3.0,74,0.00,,,0.00,WeatherCatV1.02B3,2013-02-05 21:27:00,
2013-02-05 15:32:00,61.2,52.8,30.00,WNW,293,1.0,3.0,74,0.00,,,0.00,WeatherCatV1.02B3,2013-02-05 21:32:00,
2013-02-05 15:37:00,61.3,52.9,30.00,WNW,293,0.0,2.0,74,0.00,,,0.00,WeatherCatV1.02B3,2013-02-05 21:37:00,
2013-02-05 15:42:00,61.8,53.4,30.00,WNW,282,2.0,3.0,74,0.00,,,0.00,WeatherCatV1.02B3,2013-02-05 21:42:00,
2013-02-05 15:47:00,62.0,53.2,30.00,West,269,2.0,3.0,73,0.00,,,0.00,WeatherCatV1.02B3,2013-02-05 21:47:00,
2013-02-05 15:52:00,62.2,53.4,30.00,South,182,2.0,3.0,73,0.00,,,0.00,WeatherCatV1.02B3,2013-02-05 21:52:00,
2013-02-05 15:57:00,62.3,53.5,30.00,South,189,3.0,4.0,73,0.00,,,0.00,WeatherCatV1.02B3,2013-02-05 21:57:00,
2013-02-05 16:02:00,62.0,53.2,30.00,SSW,202,3.0,6.0,73,0.00,,,0.00,WeatherCatV1.02B3,2013-02-05 22:02:00,
2013-02-05 16:07:00,61.9,53.1,30.00,SSW,202,0.0,0.0,73,0.00,,,0.00,WeatherCatV1.02B3,2013-02-05 22:07:00,
2013-02-05 16:12:00,62.2,53.4,30.00,SSW,202,4.0,5.0,73,0.00,,,0.00,WeatherCatV1.02B3,2013-02-05 22:12:00,
2013-02-05 16:17:00,62.0,53.2,30.00,SSW,207,4.0,5.0,73,0.00,,,0.00,WeatherCatV1.02B3,2013-02-05 22:17:00,
2013-02-05 16:22:00,61.8,53.0,30.00,SW,220,4.0,6.0,73,0.00,,,0.00,WeatherCatV1.02B3,2013-02-05 22:22:00,
2013-02-05 16:27:00,61.7,53.3,30.01,SSW,196,4.0,4.0,74,0.00,,,0.00,WeatherCatV1.02B3,2013-02-05 22:27:00,
2013-02-05 16:32:00,61.7,53.0,30.01,SSW,213,6.0,6.0,73,0.00,,,0.00,WeatherCatV1.02B3,2013-02-05 22:32:00,
2013-02-05 16:37:00,61.4,52.7,30.00,SSW,209,4.0,5.0,73,0.00,,,0.00,WeatherCatV1.02B3,2013-02-05 22:37:00,
2013-02-05 16:42:00,61.2,52.8,30.00,SSW,209,2.0,3.0,74,0.00,,,0.00,WeatherCatV1.02B3,2013-02-05 22:42:00,
2013-02-05 16:47:00,61.1,53.1,30.00,SSW,211,4.0,5.0,75,0.00,,,0.00,WeatherCatV1.02B3,2013-02-05 22:47:00,
2013-02-05 16:52:00,61.0,53.4,30.01,SSW,211,4.0,5.0,76,0.00,,,0.00,WeatherCatV1.02B3,2013-02-05 22:52:00,
2013-02-05 16:57:00,60.8,53.2,30.01,SSW,211,3.0,4.0,76,0.00,,,0.00,WeatherCatV1.02B3,2013-02-05 22:57:00,
2013-02-05 17:02:00,60.8,52.8,30.01,SSW,211,1.0,3.0,75,0.00,,,0.00,WeatherCatV1.02B3,2013-02-05 23:02:00,
2013-02-05 17:07:00,60.7,53.1,30.00,SSW,211,1.0,2.0,76,0.00,,,0.00,WeatherCatV1.02B3,2013-02-05 23:07:00,
2013-02-05 17:12:00,60.5,53.2,30.01,SSW,211,0.0,0.0,77,0.00,,,0.00,WeatherCatV1.02B3,2013-02-05 23:12:00,
2013-02-05 17:17:00,60.3,53.1,30.01,SSW,211,0.0,1.0,77,0.00,,,0.00,WeatherCatV1.02B3,2013-02-05 23:17:00,
2013-02-05 17:22:00,59.9,52.7,30.01,SSW,211,0.0,0.0,77,0.00,,,0.00,WeatherCatV1.02B3,2013-02-05 23:22:00,
2013-02-05 17:27:00,59.8,52.6,30.01,SSW,211,0.0,0.0,77,0.00,,,0.00,WeatherCatV1.02B3,2013-02-05 23:27:00,
2013-02-05 17:32:00,59.6,52.4,30.01,SSW,211,0.0,0.0,77,0.00,,,0.00,WeatherCatV1.02B3,2013-02-05 23:32:00,
2013-02-05 17:37:00,59.4,52.2,30.01,SSW,211,0.0,0.0,77,0.00,,,0.00,WeatherCatV1.02B3,2013-02-05 23:37:00,
2013-02-05 17:42:00,59.0,52.1,30.01,SSW,211,0.0,0.0,78,0.00,,,0.00,WeatherCatV1.02B3,2013-02-05 23:42:00,
2013-02-05 17:47:00,58.8,52.0,30.01,SSW,211,0.0,0.0,78,0.00,,,0.00,WeatherCatV1.02B3,2013-02-05 23:47:00,
2013-02-05 17:52:00,58.5,51.7,30.01,SSW,211,0.0,0.0,78,0.00,,,0.00,WeatherCatV1.02B3,2013-02-05 23:52:00,
2013-02-05 17:57:00,58.2,51.7,30.02,SSW,211,0.0,0.0,79,0.00,,,0.00,WeatherCatV1.02B3,2013-02-05 23:57:00,
2013-02-05 18:02:00,57.8,51.3,30.02,SSW,211,0.0,0.0,79,0.00,,,0.00,WeatherCatV1.02B3,2013-02-06 00:02:00,
2013-02-05 18:07:00,57.5,51.4,30.02,SSW,211,0.0,0.0,80,0.00,,,0.00,WeatherCatV1.02B3,2013-02-06 00:07:00,
2013-02-05 18:12:00,57.3,51.2,30.02,SSW,211,0.0,0.0,80,0.00,,,0.00,WeatherCatV1.02B3,2013-02-06 00:12:00,
2013-02-05 18:17:00,57.1,51.0,30.02,SSW,211,0.0,0.0,80,0.00,,,0.00,WeatherCatV1.02B3,2013-02-06 00:17:00,
2013-02-05 18:22:00,56.7,50.9,30.02,SSW,211,0.0,0.0,81,0.00,,,0.00,WeatherCatV1.02B3,2013-02-06 00:22:00,
2013-02-05 18:27:00,56.2,51.1,30.02,SSW,211,0.0,0.0,83,0.00,,,0.00,WeatherCatV1.02B3,2013-02-06 00:27:00,
2013-02-05 18:32:00,55.9,51.1,30.03,SSW,211,0.0,0.0,84,0.00,,,0.00,WeatherCatV1.02B3,2013-02-06 00:32:00,
2013-02-05 18:37:00,55.7,50.9,30.03,SSW,211,0.0,0.0,84,0.00,,,0.00,WeatherCatV1.02B3,2013-02-06 00:37:00,
2013-02-05 18:42:00,55.4,51.0,30.03,SSW,211,0.0,1.0,85,0.00,,,0.00,WeatherCatV1.02B3,2013-02-06 00:42:00,
2013-02-05 18:47:00,54.9,50.8,30.03,SSW,211,1.0,1.0,86,0.00,,,0.00,WeatherCatV1.02B3,2013-02-06 00:47:00,
2013-02-05 18:52:00,54.5,50.7,30.03,SSW,211,0.0,0.0,87,0.00,,,0.00,WeatherCatV1.02B3,2013-02-06 00:52:00,
2013-02-05 18:57:00,53.9,50.1,30.03,SSW,211,0.0,0.0,87,0.00,,,0.00,WeatherCatV1.02B3,2013-02-06 00:57:00,
2013-02-05 19:02:00,53.7,50.2,30.03,SSW,211,0.0,2.0,88,0.00,,,0.00,WeatherCatV1.02B3,2013-02-06 01:02:00,
2013-02-05 19:07:00,53.5,50.6,30.03,SSW,211,0.0,0.0,90,0.00,,,0.00,WeatherCatV1.02B3,2013-02-06 01:07:00,
2013-02-05 19:12:00,53.3,50.4,30.04,SSW,211,0.0,0.0,90,0.00,,,0.00,WeatherCatV1.02B3,2013-02-06 01:12:00,
2013-02-05 19:17:00,53.1,50.2,30.04,SSW,211,0.0,0.0,90,0.00,,,0.00,WeatherCatV1.02B3,2013-02-06 01:17:00,
2013-02-05 19:22:00,52.8,49.9,30.04,SSW,211,0.0,0.0,90,0.00,,,0.00,WeatherCatV1.02B3,2013-02-06 01:22:00,
2013-02-05 19:27:00,52.5,49.9,30.04,SSW,211,0.0,0.0,91,0.00,,,0.00,WeatherCatV1.02B3,2013-02-06 01:27:00,
2013-02-05 19:32:00,52.4,49.8,30.04,SSW,211,0.0,0.0,91,0.00,,,0.00,WeatherCatV1.02B3,2013-02-06 01:32:00,
2013-02-05 19:37:00,52.2,49.7,30.05,SSW,211,0.0,0.0,91,0.00,,,0.00,WeatherCatV1.02B3,2013-02-06 01:37:00,
2013-02-05 19:42:00,52.0,49.7,30.05,SSW,211,0.0,0.0,92,0.00,,,0.00,WeatherCatV1.02B3,2013-02-06 01:42:00,
2013-02-05 19:47:00,51.9,49.6,30.05,SSW,211,0.0,0.0,92,0.00,,,0.00,WeatherCatV1.02B3,2013-02-06 01:47:00,
2013-02-05 19:52:00,51.5,49.3,30.05,SSW,211,0.0,0.0,92,0.00,,,0.00,WeatherCatV1.02B3,2013-02-06 01:52:00,
2013-02-05 19:57:00,51.3,49.3,30.05,SSW,211,0.0,0.0,93,0.00,,,0.00,WeatherCatV1.02B3,2013-02-06 01:57:00,
2013-02-05 20:02:00,51.1,49.1,30.06,SSW,211,0.0,0.0,93,0.00,,,0.00,WeatherCatV1.02B3,2013-02-06 02:02:00,
2013-02-05 20:07:00,50.8,48.6,30.06,SSW,211,0.0,0.0,92,0.00,,,0.00,WeatherCatV1.02B3,2013-02-06 02:07:00,
2013-02-05 20:12:00,50.4,48.2,30.06,SSW,211,0.0,0.0,92,0.00,,,0.00,WeatherCatV1.02B3,2013-02-06 02:12:00,
2013-02-05 20:17:00,49.7,47.2,30.06,SSW,211,0.0,0.0,91,0.00,,,0.00,WeatherCatV1.02B3,2013-02-06 02:17:00,
2013-02-05 20:22:00,49.2,47.0,30.06,SSW,211,0.0,0.0,92,0.00,,,0.00,WeatherCatV1.02B3,2013-02-06 02:22:00,
2013-02-05 20:27:00,48.8,46.6,30.06,SSW,211,0.0,0.0,92,0.00,,,0.00,WeatherCatV1.02B3,2013-02-06 02:27:00,
2013-02-05 20:32:00,48.7,46.8,30.06,SSW,211,0.0,0.0,93,0.00,,,0.00,WeatherCatV1.02B3,2013-02-06 02:32:00,
2013-02-05 20:37:00,48.9,47.2,30.06,SSW,211,0.0,0.0,94,0.00,,,0.00,WeatherCatV1.02B3,2013-02-06 02:37:00,
2013-02-05 20:42:00,49.2,47.8,30.06,SSW,211,0.0,0.0,95,0.00,,,0.00,WeatherCatV1.02B3,2013-02-06 02:42:00,
2013-02-05 20:47:00,49.3,47.9,30.06,SSW,211,0.0,0.0,95,0.00,,,0.00,WeatherCatV1.02B3,2013-02-06 02:47:00,
2013-02-05 20:52:00,49.1,47.4,30.07,SSW,211,0.0,0.0,94,0.00,,,0.00,WeatherCatV1.02B3,2013-02-06 02:52:00,
2013-02-05 20:57:00,49.0,47.3,30.07,SSW,211,0.0,0.0,94,0.00,,,0.00,WeatherCatV1.02B3,2013-02-06 02:57:00,
2013-02-05 21:02:00,48.8,47.2,30.07,SSW,211,0.0,0.0,94,0.00,,,0.00,WeatherCatV1.02B3,2013-02-06 03:02:00,
2013-02-05 21:07:00,48.6,47.0,30.07,SSW,211,0.0,0.0,94,0.00,,,0.00,WeatherCatV1.02B3,2013-02-06 03:07:00,
2013-02-05 21:12:00,48.5,46.9,30.07,SSW,211,0.0,0.0,94,0.00,,,0.00,WeatherCatV1.02B3,2013-02-06 03:12:00,
2013-02-05 21:17:00,48.5,47.1,30.07,SSW,211,0.0,0.0,95,0.00,,,0.00,WeatherCatV1.02B3,2013-02-06 03:17:00,
2013-02-05 21:22:00,48.6,47.2,30.07,SSW,211,0.0,0.0,95,0.00,,,0.00,WeatherCatV1.02B3,2013-02-06 03:22:00,
2013-02-05 21:27:00,48.5,47.1,30.07,SSW,211,0.0,0.0,95,0.00,,,0.00,WeatherCatV1.02B3,2013-02-06 03:27:00,
2013-02-05 21:32:00,48.5,47.1,30.08,SSW,211,0.0,0.0,95,0.00,,,0.00,WeatherCatV1.02B3,2013-02-06 03:32:00,
2013-02-05 21:37:00,48.3,46.7,30.08,SSW,211,0.0,0.0,94,0.00,,,0.00,WeatherCatV1.02B3,2013-02-06 03:37:00,
2013-02-05 21:42:00,48.0,46.6,30.08,SSW,211,0.0,0.0,95,0.00,,,0.00,WeatherCatV1.02B3,2013-02-06 03:42:00,
2013-02-05 21:47:00,48.0,46.6,30.08,SSW,211,0.0,0.0,95,0.00,,,0.00,WeatherCatV1.02B3,2013-02-06 03:47:00,
2013-02-05 21:52:00,47.9,46.5,30.08,SSW,211,0.0,0.0,95,0.00,,,0.00,WeatherCatV1.02B3,2013-02-06 03:52:00,
2013-02-05 21:57:00,47.9,46.8,30.08,SSW,211,0.0,0.0,96,0.00,,,0.00,WeatherCatV1.02B3,2013-02-06 03:57:00,
2013-02-05 22:02:00,48.0,46.6,30.08,SSW,211,0.0,0.0,95,0.00,,,0.00,WeatherCatV1.02B3,2013-02-06 04:02:00,
2013-02-05 22:07:00,48.3,47.2,30.08,SSW,211,0.0,0.0,96,0.00,,,0.00,WeatherCatV1.02B3,2013-02-06 04:07:00,
2013-02-05 22:12:00,48.5,47.4,30.08,SSW,211,0.0,0.0,96,0.00,,,0.00,WeatherCatV1.02B3,2013-02-06 04:12:00,
2013-02-05 22:17:00,48.4,47.0,30.08,SSW,211,0.0,0.0,95,0.00,,,0.00,WeatherCatV1.02B3,2013-02-06 04:17:00,
2013-02-05 22:22:00,47.9,46.3,30.08,SSW,211,0.0,0.0,94,0.00,,,0.00,WeatherCatV1.02B3,2013-02-06 04:22:00,
2013-02-05 22:27:00,47.2,45.6,30.08,SSW,211,0.0,0.0,94,0.00,,,0.00,WeatherCatV1.02B3,2013-02-06 04:27:00,
2013-02-05 22:32:00,46.4,44.5,30.08,SSW,211,0.0,0.0,93,0.00,,,0.00,WeatherCatV1.02B3,2013-02-06 04:32:00,
2013-02-05 22:37:00,46.3,44.9,30.08,SSW,211,0.0,0.0,95,0.00,,,0.00,WeatherCatV1.02B3,2013-02-06 04:37:00,
2013-02-05 22:42:00,46.8,45.7,30.08,SSW,211,0.0,0.0,96,0.00,,,0.00,WeatherCatV1.02B3,2013-02-06 04:42:00,
2013-02-05 22:47:00,46.9,45.5,30.08,SSW,211,0.0,0.0,95,0.00,,,0.00,WeatherCatV1.02B3,2013-02-06 04:47:00,
2013-02-05 22:52:00,46.1,44.5,30.08,SSW,211,0.0,0.0,94,0.00,,,0.00,WeatherCatV1.02B3,2013-02-06 04:52:00,
2013-02-05 22:57:00,45.2,43.6,30.08,SSW,211,0.0,0.0,94,0.00,,,0.00,WeatherCatV1.02B3,2013-02-06 04:57:00,
2013-02-05 23:00:00,44.9,43.3,30.08,SSW,211,0.0,0.0,94,0.00,,,0.00,WeatherCatV1.02B3,2013-02-06 05:00:00,
2013-02-05 23:05:00,44.4,42.8,30.08,SSW,211,0.0,0.0,94,0.00,,,0.00,WeatherCatV1.02B3,2013-02-06 05:05:00,
2013-02-05 23:10:00,44.1,42.8,30.08,SSW,211,0.0,0.0,95,0.00,,,0.00,WeatherCatV1.02B3,2013-02-06 05:10:00,
2013-02-05 23:15:00,44.2,43.1,30.08,SSW,211,1.0,1.0,96,0.00,,,0.00,WeatherCatV1.02B3,2013-02-06 05:15:00,
2013-02-05 23:20:00,44.5,43.4,30.08,SSW,211,0.0,0.0,96,0.00,,,0.00,WeatherCatV1.02B3,2013-02-06 05:20:00,
2013-02-05 23:25:00,44.6,43.5,30.08,SSW,211,0.0,0.0,96,0.00,,,0.00,WeatherCatV1.02B3,2013-02-06 05:25:00,
2013-02-05 23:30:00,44.5,43.4,30.08,SSW,211,0.0,0.0,96,0.00,,,0.00,WeatherCatV1.02B3,2013-02-06 05:30:00,
2013-02-05 23:35:00,44.2,42.9,30.08,SSW,211,0.0,0.0,95,0.00,,,0.00,WeatherCatV1.02B3,2013-02-06 05:35:00,
2013-02-05 23:40:00,43.8,42.5,30.09,SSW,211,0.0,0.0,95,0.00,,,0.00,WeatherCatV1.02B3,2013-02-06 05:40:00,
2013-02-05 23:45:00,43.5,42.4,30.09,SSW,211,0.0,0.0,96,0.00,,,0.00,WeatherCatV1.02B3,2013-02-06 05:45:00,
2013-02-05 23:50:00,43.4,42.1,30.08,SSW,211,0.0,0.0,95,0.00,,,0.00,WeatherCatV1.02B3,2013-02-06 05:50:00,
2013-02-05 23:55:00,43.1,42.0,30.09,SSW,211,0.0,0.0,96,0.00,,,0.00,WeatherCatV1.02B3,2013-02-06 05:55:00,